Weather History for Laredo, TX

Change the Weather History Date:

Friday, February 22, 2013

  Actual Average Record
Temperature  
Mean Temperature 68 °F 63 °F  
Max Temperature 80 °F 74 °F 98 °F (1996)
Min Temperature 56 °F 52 °F 28 °F (1939)
Degree Days  
Heating Degree Days 0 5  
Month to date heating degree days 27 139  
Since 1 July heating degree days 458 818  
Cooling Degree Days 3 2  
Month to date cooling degree days 74 40  
Year to date cooling degree days 152 68  
Growing Degree Days 18 (Base 50)    
Moisture  
Dew Point 39 °F    
Average Humidity 36    
Maximum Humidity 47    
Minimum Humidity 23    
Precipitation  
Precipitation 0.00 in 0.03 in 0.73 in (1958)
Month to date precipitation 0.31 0.72  
Year to date precipitation 0.75 1.62  
Sea Level Pressure  
Sea Level Pressure 29.88 in    
Wind  
Wind Speed 9 mph (ENE)    
Max Wind Speed 18 mph    
Max Gust Speed 22 mph    
Visibility 10 miles    
Events      
T = Trace of Precipitation, MM = Missing Value Source: NWS Daily Summary

Daily Weather History Graph

Daily Weather History Graph

Search for Another Location

Airport:

Trip Planner

Search our weather history database for the weather conditions in past years. The results will help you decide how hot, cold, wet, or windy it might be!

Date:

Astronomy

Feb. 22, 2013 Rise Set
Actual Time 7:08 AM CST 6:34 PM CST
Civil Twilight 6:44 AM CST 6:57 PM CST
Nautical Twilight 6:17 AM CST 7:25 PM CST
Astronomical Twilight 5:50 AM CST 7:52 PM CST
Moon 3:56 PM CST (2/22) 4:44 AM CST (2/22)
Length of Visible Light 12h 12m
Length of Day
11h 25m
Waxing Gibbous, 90% of the Moon is Illuminated
Feb 22
Waxing Gibbous
Feb 25
Full
Mar 4
Last Quarter
Mar 11
New
Mar 19
First Quarter

Hourly Weather History & Observations

Time (CST) Temp. Dew Point Humidity Pressure Visibility Wind Dir Wind Speed Gust Speed Precip Events Conditions
12:56 AM 61.0 °F 37.9 °F 42% 29.84 in 10.0 mi Calm Calm - N/A   Clear
1:56 AM 59.0 °F 36.9 °F 44% 29.85 in 10.0 mi Calm Calm - N/A   Clear
2:56 AM 56.8 °F 36.9 °F 47% 29.84 in 10.0 mi Calm Calm - N/A   Clear
3:56 AM 57.9 °F 36.0 °F 44% 29.82 in 10.0 mi Calm Calm - N/A   Clear
4:56 AM 59.0 °F 36.0 °F 42% 29.83 in 10.0 mi Calm Calm - N/A   Mostly Cloudy
5:56 AM 63.0 °F 38.8 °F 41% 29.85 in 10.0 mi NNE 6.9 mph - N/A   Overcast
6:56 AM 61.0 °F 37.9 °F 42% 29.88 in 10.0 mi NNE 6.9 mph - N/A   Overcast
7:56 AM 61.0 °F 38.8 °F 44% 29.91 in 10.0 mi NNE 5.8 mph - N/A   Mostly Cloudy
8:56 AM 63.0 °F 41.0 °F 45% 29.94 in 10.0 mi NE 9.2 mph - N/A   Clear
9:56 AM 66.9 °F 36.9 °F 33% 29.95 in 10.0 mi ENE 15.0 mph - N/A   Clear
10:56 AM 70.9 °F 36.9 °F 29% 29.94 in 10.0 mi ENE 16.1 mph - N/A   Clear
11:56 AM 72.9 °F 36.9 °F 27% 29.93 in 10.0 mi East 11.5 mph - N/A   Clear
12:56 PM 75.9 °F 37.9 °F 25% 29.89 in - ENE 15.0 mph - N/A   Unknown
1:56 PM 79.0 °F 37.9 °F 23% 29.86 in 10.0 mi ENE 10.4 mph - N/A   Clear
2:56 PM 79.0 °F 38.8 °F 24% 29.82 in 10.0 mi East 10.4 mph 19.6 mph N/A   Clear
3:56 PM 79.9 °F 41.9 °F 26% 29.81 in 10.0 mi ENE 12.7 mph - N/A   Clear
4:56 PM 79.0 °F 43.0 °F 28% 29.81 in 10.0 mi East 11.5 mph - N/A   Clear
5:56 PM 77.0 °F 41.9 °F 28% 29.82 in 10.0 mi East 10.4 mph - N/A   Clear
6:56 PM 72.9 °F 41.9 °F 33% 29.85 in 10.0 mi East 10.4 mph - N/A   Clear
7:56 PM 70.0 °F 39.9 °F 33% 29.87 in 10.0 mi ENE 11.5 mph - N/A   Clear
8:56 PM 65.8 °F 37.9 °F 36% 29.90 in 10.0 mi ENE 10.4 mph - N/A   Clear
9:56 PM 63.9 °F 36.9 °F 37% 29.91 in 10.0 mi ENE 13.8 mph - N/A   Clear
10:56 PM 61.9 °F 37.9 °F 41% 29.94 in 10.0 mi ENE 11.5 mph - N/A   Clear
11:56 PM 59.0 °F 37.9 °F 46% 29.96 in 10.0 mi ENE 15.0 mph - N/A   Clear